timestamp,wind_dir_avg,wind_spd_avg,wind_spd_max_dir,wind_spd_gust,battery_voltage,lat,long
2024-03-11 00:04:01+00:00,162.0,4.61,154.0,5.63,12.25,47.59359,-54.27349
2024-03-11 00:14:00+00:00,150.0,5.64,157.0,5.86,12.17,47.59359,-54.27349
2024-03-11 00:24:00+00:00,152.0,4.71,150.0,5.42,12.17,47.59359,-54.27349
2024-03-11 00:34:00+00:00,141.0,4.55,143.0,4.79,12.17,47.59359,-54.27349
2024-03-11 00:44:00+00:00,134.0,4.22,131.0,4.45,12.17,47.59359,-54.27349
2024-03-11 00:54:00+00:00,161.0,5.92,161.0,6.62,12.17,47.59359,-54.27349
2024-03-11 01:04:00+00:00,158.0,5.76,158.0,6.44,12.17,47.59359,-54.27349
2024-03-11 01:14:00+00:00,154.0,5.51,157.0,6.08,12.17,47.59359,-54.27349
2024-03-11 01:24:00+00:00,152.0,5.4,157.0,6.14,12.17,47.59359,-54.27349
2024-03-11 01:34:00+00:00,168.0,5.53,163.0,6.23,12.17,47.59359,-54.27349
2024-03-11 01:44:00+00:00,155.0,5.34,155.0,5.82,12.17,47.59359,-54.27349
2024-03-11 01:54:00+00:00,163.0,5.21,169.0,6.56,12.17,47.59359,-54.27349
2024-03-11 02:04:00+00:00,160.0,6.15,166.0,6.71,12.17,47.59359,-54.27349
2024-03-11 02:14:00+00:00,149.0,5.36,152.0,5.9,12.17,47.59359,-54.27349
2024-03-11 02:24:00+00:00,144.0,5.18,147.0,5.63,12.17,47.59359,-54.27349
2024-03-11 02:34:00+00:00,150.0,4.05,149.0,4.75,12.17,47.59359,-54.27349
2024-03-11 02:44:00+00:00,142.0,4.47,142.0,4.99,12.17,47.59359,-54.27349
2024-03-11 02:54:00+00:00,135.0,3.98,135.0,4.58,12.17,47.59359,-54.27349
2024-03-11 03:04:00+00:00,125.0,4.47,123.0,4.74,12.17,47.59359,-54.27349
2024-03-11 03:14:00+00:00,117.0,2.7,131.0,3.4,12.17,47.59359,-54.27349
2024-03-11 03:24:00+00:00,98.0,2.15,119.0,3.09,12.17,47.59359,-54.27349
2024-03-11 03:34:00+00:00,90.0,2.46,116.0,2.97,12.17,47.59359,-54.27349
2024-03-11 03:44:00+00:00,112.0,2.64,135.0,4.84,12.17,47.59359,-54.27349
2024-03-11 03:54:00+00:00,90.0,2.51,142.0,3.4,12.17,47.59359,-54.27349
2024-03-11 04:04:00+00:00,101.0,2.58,58.0,5.51,12.17,47.59359,-54.27349
2024-03-11 04:14:00+00:00,86.0,2.05,84.0,3.0,12.09,47.59359,-54.27349
2024-03-11 04:24:00+00:00,81.0,2.29,133.0,3.64,12.09,47.59359,-54.27349
2024-03-11 04:34:00+00:00,103.0,2.35,119.0,3.34,12.09,47.59359,-54.27349
2024-03-11 04:44:00+00:00,96.0,2.21,123.0,3.65,12.09,47.59359,-54.27349
2024-03-11 04:54:00+00:00,87.0,2.79,119.0,3.45,12.09,47.59359,-54.27349
2024-03-11 05:04:00+00:00,85.0,2.76,85.0,4.92,12.09,47.59359,-54.27349
2024-03-11 05:14:01+00:00,106.0,2.96,134.0,3.66,12.09,47.59359,-54.27349
2024-03-11 05:24:01+00:00,107.0,2.86,127.0,4.29,12.09,47.59359,-54.27349
2024-03-11 05:34:01+00:00,103.0,2.73,118.0,4.61,12.09,47.59359,-54.27349
2024-03-11 05:44:01+00:00,102.0,2.76,118.0,5.4,12.09,47.59359,-54.27349
2024-03-11 05:54:01+00:00,114.0,2.55,130.0,4.11,12.09,47.59359,-54.27349
2024-03-11 06:04:01+00:00,113.0,2.75,135.0,4.2,12.09,47.59359,-54.27349
2024-03-11 06:14:00+00:00,122.0,3.44,129.0,3.81,12.09,47.59359,-54.27349
2024-03-11 06:24:00+00:00,93.0,2.84,55.0,3.58,12.09,47.59359,-54.27349
2024-03-11 06:34:00+00:00,85.0,2.77,56.0,3.48,12.09,47.59359,-54.27349
2024-03-11 06:44:00+00:00,92.0,2.78,78.0,3.38,12.09,47.59359,-54.27349
2024-03-11 06:54:00+00:00,88.0,3.05,81.0,4.67,12.09,47.59359,-54.27349
2024-03-11 07:04:00+00:00,81.0,2.73,111.0,3.5,12.09,47.59359,-54.27349
2024-03-11 07:14:00+00:00,84.0,3.78,88.0,5.24,12.09,47.59359,-54.27349
2024-03-11 07:24:00+00:00,73.0,4.99,64.0,6.87,12.09,47.59359,-54.27349
2024-03-11 07:34:00+00:00,70.0,4.27,59.0,5.59,12.09,47.59359,-54.27349
2024-03-11 07:44:00+00:00,74.0,2.97,58.0,3.66,12.09,47.59359,-54.27349
2024-03-11 07:54:00+00:00,105.0,2.68,114.0,4.77,12.09,47.59359,-54.27349
2024-03-11 08:04:00+00:00,77.0,5.55,74.0,8.59,12.09,47.59359,-54.27349
2024-03-11 08:14:01+00:00,80.0,4.5,75.0,5.59,12.01,47.59359,-54.27349
2024-03-11 08:24:01+00:00,82.0,3.76,58.0,5.71,12.01,47.59359,-54.27349
2024-03-11 08:34:01+00:00,83.0,3.28,81.0,5.47,12.01,47.59359,-54.27349
2024-03-11 08:44:01+00:00,72.0,4.99,66.0,6.21,12.01,47.59359,-54.27349
2024-03-11 08:54:01+00:00,61.0,3.47,56.0,4.41,12.01,47.59359,-54.27349
2024-03-11 09:04:01+00:00,77.0,2.29,64.0,3.16,12.01,47.59359,-54.27349
2024-03-11 09:14:00+00:00,106.0,3.25,136.0,6.8,12.01,47.59359,-54.27349
2024-03-11 09:24:00+00:00,114.0,4.15,126.0,6.22,12.01,47.59359,-54.27349
2024-03-11 09:34:00+00:00,86.0,5.67,79.0,9.1,12.01,47.59359,-54.27349
2024-03-11 09:44:00+00:00,115.0,5.44,124.0,8.08,12.01,47.59359,-54.27349
2024-03-11 09:54:00+00:00,131.0,6.99,129.0,9.12,12.01,47.59359,-54.27349
2024-03-11 10:04:00+00:00,121.0,5.19,121.0,7.5,12.01,47.59359,-54.27349
2024-03-11 10:14:00+00:00,127.0,9.16,122.0,10.94,12.01,47.59359,-54.27349
2024-03-11 10:24:00+00:00,129.0,9.83,142.0,11.95,12.01,47.59359,-54.27349
2024-03-11 10:34:00+00:00,133.0,11.84,126.0,13.97,12.01,47.59359,-54.27349
2024-03-11 10:44:00+00:00,134.0,12.14,136.0,14.23,12.01,47.59359,-54.27349
2024-03-11 10:54:00+00:00,139.0,10.86,134.0,13.03,12.01,47.59359,-54.27349
2024-03-11 11:04:00+00:00,136.0,9.56,141.0,10.79,12.01,47.59359,-54.27349
2024-03-11 11:14:00+00:00,139.0,8.98,143.0,10.16,12.25,47.59359,-54.27349
2024-03-11 11:24:00+00:00,129.0,8.19,128.0,9.92,12.25,47.59359,-54.27349
2024-03-11 11:34:00+00:00,126.0,9.03,129.0,10.56,12.25,47.59359,-54.27349
2024-03-11 11:44:00+00:00,121.0,7.72,120.0,9.04,12.25,47.59359,-54.27349
2024-03-11 11:54:00+00:00,124.0,7.58,127.0,9.04,12.25,47.59359,-54.27349
2024-03-11 12:04:00+00:00,133.0,5.94,143.0,7.39,12.25,47.59359,-54.27349
2024-03-11 12:14:00+00:00,132.0,8.06,126.0,9.9,12.73,47.59359,-54.27349
2024-03-11 12:24:00+00:00,136.0,8.39,141.0,10.13,12.73,47.59359,-54.27349
2024-03-11 12:34:00+00:00,129.0,7.25,136.0,8.19,12.73,47.59359,-54.27349
2024-03-11 12:44:00+00:00,114.0,6.8,112.0,9.22,12.73,47.59359,-54.27349
2024-03-11 12:54:00+00:00,115.0,5.36,124.0,7.45,12.73,47.59359,-54.27349
2024-03-11 13:04:00+00:00,83.0,2.77,97.0,4.79,12.73,47.59359,-54.27349
2024-03-11 13:14:00+00:00,96.0,4.08,118.0,7.26,13.13,47.59359,-54.27349
2024-03-11 13:24:00+00:00,56.0,1.2,86.0,3.55,13.13,47.59359,-54.27349
2024-03-11 13:34:00+00:00,67.0,1.62,74.0,4.37,13.13,47.59359,-54.27349
2024-03-11 13:44:00+00:00,73.0,3.57,67.0,5.14,13.13,47.59359,-54.27349
2024-03-11 13:54:00+00:00,70.0,5.31,70.0,7.13,13.13,47.59359,-54.27349
2024-03-11 14:04:00+00:00,94.0,2.34,110.0,6.82,13.13,47.59359,-54.27349
2024-03-11 14:14:00+00:00,93.0,4.61,102.0,9.82,13.13,47.59359,-54.27349
2024-03-11 14:24:00+00:00,81.0,3.47,78.0,7.59,13.13,47.59359,-54.27349
2024-03-11 14:34:00+00:00,97.0,5.75,111.0,10.04,13.13,47.59359,-54.27349
2024-03-11 14:44:00+00:00,83.0,7.65,66.0,10.26,13.13,47.59359,-54.27349
2024-03-11 14:54:00+00:00,96.0,7.67,112.0,10.75,13.13,47.59359,-54.27349
2024-03-11 15:04:00+00:00,95.0,8.18,114.0,10.79,13.13,47.59359,-54.27349
2024-03-11 15:14:00+00:00,93.0,7.5,94.0,14.35,13.05,47.59359,-54.27349
2024-03-11 15:24:00+00:00,89.0,6.73,72.0,10.18,13.05,47.59359,-54.27349
2024-03-11 15:34:00+00:00,95.0,8.19,121.0,11.2,13.05,47.59359,-54.27349
2024-03-11 15:44:00+00:00,98.0,8.12,132.0,11.77,13.05,47.59359,-54.27349
2024-03-11 15:54:00+00:00,96.0,8.16,110.0,11.84,13.05,47.59359,-54.27349
2024-03-11 16:04:00+00:00,96.0,8.49,108.0,12.75,13.05,47.59359,-54.27349
2024-03-11 16:14:00+00:00,99.0,8.37,101.0,12.21,13.13,47.59359,-54.27349
2024-03-11 16:24:00+00:00,92.0,8.61,85.0,14.63,13.13,47.59359,-54.27349
2024-03-11 16:34:00+00:00,97.0,8.41,115.0,10.62,13.13,47.59359,-54.27349
2024-03-11 16:44:00+00:00,105.0,7.27,129.0,11.24,13.13,47.59359,-54.27349
2024-03-11 16:54:00+00:00,101.0,7.82,115.0,11.48,13.13,47.59359,-54.27349
2024-03-11 17:04:00+00:00,90.0,8.21,92.0,14.61,13.13,47.59359,-54.27349
2024-03-11 17:14:00+00:00,95.0,7.61,120.0,10.31,13.05,47.59359,-54.27349
2024-03-11 17:24:00+00:00,99.0,7.91,123.0,10.73,13.05,47.59359,-54.27349
2024-03-11 17:34:00+00:00,91.0,7.09,110.0,12.61,13.05,47.59359,-54.27349
2024-03-11 17:44:00+00:00,107.0,7.94,116.0,13.47,13.05,47.59359,-54.27349
2024-03-11 17:54:00+00:00,87.0,7.52,76.0,10.17,13.05,47.59359,-54.27349
2024-03-11 18:04:00+00:00,91.0,7.96,103.0,12.01,13.05,47.59359,-54.27349
2024-03-11 18:14:00+00:00,81.0,8.03,84.0,10.86,12.97,47.59359,-54.27349
2024-03-11 18:24:00+00:00,77.0,8.32,78.0,14.89,12.97,47.59359,-54.27349
2024-03-11 18:34:00+00:00,80.0,7.63,70.0,11.07,12.97,47.59359,-54.27349
2024-03-11 18:44:00+00:00,84.0,7.83,83.0,13.47,12.97,47.59359,-54.27349
2024-03-11 18:54:00+00:00,85.0,7.32,67.0,10.69,12.97,47.59359,-54.27349
2024-03-11 19:04:00+00:00,83.0,7.94,63.0,10.39,12.97,47.59359,-54.27349
2024-03-11 19:14:00+00:00,88.0,7.96,78.0,10.41,12.73,47.59359,-54.27349
2024-03-11 19:24:00+00:00,89.0,8.47,116.0,10.89,12.73,47.59359,-54.27349
2024-03-11 19:34:00+00:00,93.0,7.89,113.0,10.15,12.73,47.59359,-54.27349
2024-03-11 19:44:00+00:00,90.0,7.16,100.0,11.45,12.73,47.59359,-54.27349
2024-03-11 19:54:00+00:00,100.0,7.2,97.0,11.41,12.73,47.59359,-54.27349
2024-03-11 20:04:00+00:00,101.0,7.88,125.0,12.74,12.73,47.59359,-54.27349
2024-03-11 20:14:00+00:00,107.0,7.76,133.0,12.91,12.41,47.59359,-54.27349
2024-03-11 20:24:00+00:00,101.0,9.15,77.0,15.7,12.41,47.59359,-54.27349
2024-03-11 20:34:00+00:00,100.0,8.16,98.0,14.47,12.41,47.59359,-54.27349
2024-03-11 20:44:00+00:00,99.0,9.53,92.0,16.19,12.41,47.59359,-54.27349
2024-03-11 20:54:00+00:00,98.0,5.72,132.0,11.64,12.41,47.59359,-54.27349
2024-03-11 21:04:00+00:00,97.0,6.95,90.0,12.62,12.41,47.59359,-54.27349
2024-03-11 21:14:01+00:00,105.0,8.0,130.0,13.19,12.25,47.59359,-54.27349
2024-03-11 21:24:01+00:00,95.0,10.46,89.0,17.26,12.25,47.59359,-54.27349
2024-03-11 21:34:01+00:00,118.0,10.99,135.0,16.11,12.25,47.59359,-54.27349
2024-03-11 21:44:01+00:00,113.0,6.09,133.0,14.85,12.25,47.59359,-54.27349
2024-03-11 21:54:01+00:00,99.0,6.83,96.0,11.45,12.25,47.59359,-54.27349
2024-03-11 22:04:01+00:00,102.0,8.83,116.0,15.51,12.25,47.59359,-54.27349
2024-03-11 22:14:01+00:00,88.0,5.4,88.0,9.75,12.25,47.59359,-54.27349
2024-03-11 22:24:01+00:00,96.0,5.13,94.0,8.42,12.25,47.59359,-54.27349
2024-03-11 22:34:01+00:00,81.0,6.07,88.0,9.22,12.25,47.59359,-54.27349
2024-03-11 22:44:01+00:00,101.0,4.69,122.0,7.61,12.25,47.59359,-54.27349
2024-03-11 22:54:01+00:00,98.0,6.07,127.0,11.54,12.25,47.59359,-54.27349
2024-03-11 23:04:01+00:00,98.0,5.53,57.0,9.34,12.25,47.59359,-54.27349
2024-03-11 23:14:01+00:00,117.0,5.69,127.0,8.03,12.17,47.59359,-54.27349
2024-03-11 23:24:01+00:00,91.0,5.32,90.0,9.08,12.17,47.59359,-54.27349
2024-03-11 23:34:01+00:00,95.0,6.35,99.0,11.43,12.17,47.59359,-54.27349
2024-03-11 23:44:01+00:00,82.0,5.93,84.0,8.97,12.17,47.59359,-54.27349
2024-03-11 23:54:01+00:00,83.0,4.8,71.0,8.47,12.17,47.59359,-54.27349
